Regional Weather Roundup
Issued by NWS

Home | Current Version | Previous Version | Text Only | Print | Product List | Glossary Off
Versions: 1 2 3 4 5 6 7 8 9 10 11 12 13 14 15 16 17 18 19 20 21 22 23 24 25 26 27

000
ASUS45 KBOI 231710
RWRID

IDAHO REGIONAL WEATHER ROUNDUP
NATIONAL WEATHER SERVICE BOISE ID
1000 AM MST TUE JAN 23 2018

NOTE: "FAIR" INDICATES FEW OR NO CLOUDS BELOW 12000 FEET
WITH NO SIGNIFICANT WEATHER AND/OR OBSTRUCTIONS TO VISIBILITY

IDZ012-014-231800-
SOUTHWEST IDAHO


CITY           SKY/WX    TMP DP  RH WIND       PRES   REMARKS
BOISE          CLOUDY    35  23  61 SE10      30.30R WCI  27
CALDWELL       CLOUDY    32  29  88 SE7       30.33R WCI  26
MOUNTAIN HOME  PTSUNNY   29  29 100 E18       30.32S WCI  17
$$

IDZ016-017-231800-
SOUTHCENTRAL IDAHO


CITY           SKY/WX    TMP DP  RH WIND       PRES   REMARKS
BURLEY         SUNNY     27  21  78 CALM      30.33R
JEROME         MOSUNNY   23  22  96 NE17      30.33R WCI   9
TWIN FALLS     SUNNY     30  24  78 N3        30.33R
$$

IDZ019>023-231800-
SOUTHEAST IDAHO


CITY           SKY/WX    TMP DP  RH WIND       PRES   REMARKS
IDAHO FALLS    CLOUDY    26  24  92 SW6       30.35R WCI  19
POCATELLO      PTSUNNY   29  25  85 N6        30.36R WCI  23
REXBURG        CLOUDY    25  23  92 SW6       30.33R WCI  18
$$

IDZ006-010-011-018-031-032-231800-
CENTRAL IDAHO MOUNTAINS


CITY           SKY/WX    TMP DP  RH WIND       PRES   REMARKS
MCCALL         CLOUDY    22  20  92 CALM      30.23S
HAILEY         MOSUNNY   18   9  68 NW9       30.33R WCI   6
STANLEY          N/A      5   1  83 CALM      30.27R
SALMON         PTSUNNY   22  14  71 N3        30.35R
CHALLIS        PTSUNNY   16  12  84 NE3       30.31S
$$

IDZ002-004-006-007-026-231800-
NORTHERN IDAHO


CITY           SKY/WX    TMP DP  RH WIND       PRES   REMARKS
LEWISTON       CLOUDY    36  31  82 E8        30.22F WCI  30
LOWELL           N/A     35  33  92 VRB3      30.32S
COEUR D`ALENE  PTSUNNY   28  27  96 NE6       30.20S WCI  22
MULLAN PASS    LGT SNOW  21  20  96 S8        30.09S FOG     WCI  11
$$




USA.gov is the U.S. government's official web portal to all federal, state and local government web resources and services.